Location: Sungai Bunut
(2.6333°N, 113.7333°E)
Time: 22:02:33
(UTC+00:00)

A-11 Canister half - Visible Passes

Search period start: 06 December 2023 00:00
Search period end: 16 December 2023 00:00
Orbit: 1514 x 1686 km, 47.2° (Epoch: 05 December)

Date Brightness Start Highest point End Pass type
(mag) Time Alt. Az. Time Alt. Az. Time Alt. Az.
06 Dec 10.6 10:58:08 10° SSE 11:01:11 12° SE 11:04:15 10° ESE visible
06 Dec 9.1 12:56:59 10° SSW 13:04:32 62° S 13:04:32 62° S visible
07 Dec 10.7 10:37:00 10° SE 10:38:10 10° SE 10:39:19 10° SE visible
07 Dec 8.9 12:34:06 10° SSW 12:43:10 68° SE 12:43:10 68° SE visible
07 Dec 11.2 14:40:59 10° W 14:41:23 11° W 14:41:23 11° W visible
08 Dec 8.9 12:11:15 10° SSW 12:20:19 62° SE 12:21:50 56° E visible
08 Dec 10.8 14:17:41 10° W 14:20:03 17° W 14:20:03 17° W visible
09 Dec 9.1 11:48:23 10° SSW 11:57:23 57° SE 12:00:32 41° ENE visible
09 Dec 10.5 13:54:26 10° WSW 13:58:46 24° W 13:58:46 24° W visible
10 Dec 9.2 11:25:34 10° SSW 11:34:26 52° SE 11:39:17 28° ENE visible
10 Dec 10.1 13:31:12 10° WSW 13:37:30 31° WNW 13:37:30 31° WNW visible
11 Dec 9.3 11:02:45 10° SSW 11:11:30 47° SE 11:18:03 19° ENE visible
11 Dec 9.8 13:08:00 10° WSW 13:16:11 36° NW 13:16:17 36° NW visible
11 Dec 10.7 21:47:52 10° N 21:56:01 27° NE 22:04:09 10° E visible
12 Dec 9.5 10:39:57 10° SSW 10:48:34 43° SE 10:56:50 11° ENE visible
12 Dec 9.7 12:44:50 10° WSW 12:53:13 39° NW 12:55:03 36° NNW visible
12 Dec 10.7 21:25:10 10° N 21:32:58 25° NE 21:40:47 10° E visible
13 Dec 9.7 12:21:42 10° WSW 12:30:15 43° NW 12:33:51 31° N visible
13 Dec 10.8 21:02:30 10° N 21:09:55 23° NE 21:17:20 10° E visible
14 Dec 9.6 11:58:36 10° WSW 12:07:18 46° NW 12:12:39 24° N visible
14 Dec 10.8 20:39:53 10° N 20:46:51 21° NE 20:53:51 10° E visible
15 Dec 9.5 11:35:30 10° WSW 11:44:20 51° NW 11:51:27 17° NNE visible
15 Dec 10.9 20:17:19 10° N 20:23:47 19° NE 20:30:17 10° E visible
